Location: Caltech
(34.1382°N, 118.1253°W)
Time: 18:51:36
(UTC-07:00)

CZ-2C R/B - Visible Passes

Search period start: 01 September 2014 00:00
Search period end: 11 September 2014 00:00
Orbit: 670 x 786 km, 98.1° (Epoch: 01 September)

Date Brightness Start Highest point End Pass type
(mag) Time Alt. Az. Time Alt. Az. Time Alt. Az.
01 Sep 3.1 20:20:32 10° S 20:25:14 55° W 20:30:07 10° NNW visible
02 Sep 5.1 21:13:22 10° SW 21:16:17 16° W 21:19:15 10° NW visible
03 Sep 3.3 20:23:47 10° S 20:28:28 51° W 20:33:20 10° NNW visible
04 Sep 2.7 19:36:20 10° SSE 19:41:00 49° ENE 19:45:51 10° N visible
04 Sep 5.2 21:16:52 10° SW 21:19:32 15° W 21:22:15 10° WNW visible
05 Sep 3.4 20:27:02 10° S 20:31:42 47° W 20:36:33 10° NNW visible
06 Sep 2.6 19:39:28 10° SSE 19:44:13 54° ENE 19:49:09 10° N visible
06 Sep 5.2 21:20:25 10° WSW 21:22:48 14° W 21:25:14 10° WNW visible
07 Sep 3.6 20:30:18 10° S 20:34:57 43° W 20:39:45 10° NNW visible
08 Sep 2.5 19:42:37 10° SSE 19:47:26 59° ENE 19:52:26 10° N visible
08 Sep 5.3 21:24:02 10° WSW 21:26:04 12° W 21:28:08 10° WNW visible
09 Sep 3.8 20:33:35 10° SSW 20:38:11 40° W 20:42:58 10° NNW visible
10 Sep 2.5 19:45:46 10° SSE 19:50:39 64° ENE 19:55:43 10° N visible
10 Sep 5.4 21:27:45 10° WSW 21:29:20 11° W 21:30:56 10° WNW visible
